Weather History for KVOK - July, 2013

Change the Weather History Date:

Monday, July 29, 2013

  Actual Average Record
Temperature  
Mean Temperature 62 °F -  
Max Temperature 76 °F 78 °F 95 °F (1999)
Min Temperature 48 °F 62 °F 48 °F (2013)
Degree Days  
Heating Degree Days 4    
Growing Degree Days 12 (Base 50)    
Moisture  
Dew Point 54 °F    
Average Humidity 77    
Maximum Humidity 100    
Minimum Humidity 53    
Precipitation  
Precipitation 0.00 in - - ()
Sea Level Pressure  
Sea Level Pressure 30.12 in    
Wind  
Wind Speed 5 mph (NNW)    
Max Wind Speed 8 mph    
Max Gust Speed -    
Visibility 10 miles    
Events      
Averages and records for this station are not official NWS values.
T = Trace of Precipitation, MM = Missing Value Source: NWS Daily Summary

Daily Weather History Graph

Daily Weather History Graph

Search for Another Location

Airport or City:

Trip Planner

Search our weather history database for the weather conditions in past years. The results will help you decide how hot, cold, wet, or windy it might be!

Date:

Astronomy

Jul. 29, 2013 Rise Set
Actual Time 5:46 AM CDT 8:27 PM CDT
Civil Twilight 5:13 AM CDT 9:01 PM CDT
Nautical Twilight 4:31 AM CDT 9:42 PM CDT
Astronomical Twilight 3:42 AM CDT 10:30 PM CDT
Moon No Moon Rise 1:46 PM CDT (7/29)
Length of Visible Light 15h 47m
Length of Day
14h 41m
Waning Gibbous, 50% of the Moon is Illuminated
Jul 29
Waning Gibbous
Jul 29
Last Quarter
Aug 6
New
Aug 14
First Quarter
Aug 20
Full

Hourly Weather History & Observations

Time (CDT) Temp. Dew Point Humidity Pressure Visibility Wind Dir Wind Speed Gust Speed Precip Events Conditions
12:58 AM 52.0 °F 51.4 °F 98% 30.06 in 10.0 mi WNW 6.9 mph - N/A   Clear
1:58 AM 52.2 °F 51.4 °F 97% 30.06 in 10.0 mi WNW 5.8 mph - N/A   Mostly Cloudy
2:58 AM 50.0 °F 49.8 °F 99% 30.07 in 10.0 mi NW 4.6 mph - N/A   Clear
3:58 AM 49.6 °F 49.6 °F 100% 30.07 in 10.0 mi WNW 5.8 mph - N/A   Clear
4:58 AM 48.9 °F 48.9 °F 100% 30.09 in 10.0 mi WNW 4.6 mph - N/A   Clear
5:58 AM 49.1 °F 49.1 °F 100% 30.11 in 10.0 mi WNW 3.5 mph - N/A   Clear
6:58 AM 52.2 °F 52.2 °F 100% 30.12 in 10.0 mi Calm Calm - N/A   Clear
7:59 AM 58.1 °F 53.8 °F 86% 30.14 in 10.0 mi NNW 2.3 mph - N/A   Clear
8:58 AM 62.1 °F 52.5 °F 71% 30.15 in 10.0 mi NNE 8.1 mph - N/A   Clear
9:58 AM 66.2 °F 53.6 °F 64% 30.15 in 10.0 mi Variable 5.8 mph - N/A   Scattered Clouds
10:58 AM 68.0 °F 55.4 °F 64% 30.16 in 10.0 mi North 3.5 mph - N/A   Scattered Clouds
11:58 AM 69.8 °F 55.4 °F 60% 30.16 in 10.0 mi Variable 3.5 mph - N/A   Scattered Clouds
12:58 PM 71.6 °F 57.2 °F 60% 30.15 in 10.0 mi Variable 3.5 mph - N/A   Mostly Cloudy
1:58 PM 73.4 °F 55.4 °F 53% 30.14 in 10.0 mi North 2.3 mph - N/A   Mostly Cloudy
2:58 PM 75.2 °F 57.2 °F 53% 30.14 in 10.0 mi NNW 2.3 mph - N/A   Mostly Cloudy
3:58 PM 75.2 °F 57.2 °F 53% 30.13 in 10.0 mi SSE 5.8 mph - N/A   Mostly Cloudy
4:58 PM 75.2 °F 57.2 °F 53% 30.13 in 10.0 mi ESE 5.8 mph - N/A   Mostly Cloudy
6:58 PM 75.2 °F 57.2 °F 53% 30.13 in 10.0 mi South 4.6 mph - N/A   Scattered Clouds
7:58 PM 69.8 °F 59.0 °F 68% 30.14 in 10.0 mi SE 3.5 mph - N/A   Scattered Clouds
8:58 PM 62.6 °F 59.0 °F 88% 30.15 in 10.0 mi ESE 2.3 mph - N/A   Scattered Clouds
9:58 PM 58.5 °F 57.0 °F 95% 30.15 in 10.0 mi SSE 3.5 mph - N/A   Clear